Flag for Spain Weather past 2 weeks in Córdoba, Spain

Now
57 °F

Clear.


Feels Like: 57 °F
Forecast: 60 / 86 °F
Wind: 1 mph from North

Location: Cordoba / Aeropuerto

Current Time: Oct 23, 2014 at 7:19:40 AM

Latest Report: Oct 23, 2014 at 6:00 AM


Visibility: 10 mi

Pressure: 30.18 "Hg

Humidity: 59%

Dew point: 43 °F

Location of CórdobaLocation

Historic Weather in Córdoba — Graph

°F

Córdoba temperature yesterday

Maximum temperature yesterday: 84 °F (at 4:00 PM)
Minimum temperature yesterday: 57 °F (at 6:00 AM)
Average temperature yesterday: 69 °F

Past Weeks' High & Low Weather Summary

 TemperatureHumidityPressure
High90 °F (Oct 20, 5:00 PM)100% (Oct 10, 9:00 PM)30.27 "Hg (Oct 10, 9:00 PM)
Low54 °F (Oct 13, 8:00 AM)22% (Oct 20, 5:00 PM)29.71 "Hg (Oct 11, 5:00 PM)
Average67 °F76%30.01 "Hg
* Reported Oct 8 6:00 AM — Oct 23 6:00 AM, Córdoba, Weather by CustomWeather, © 2014

Note: Actual official high and low records may vary slightly from our data, if they occured in-between our weather recording intervals... More about our weather records

Advertising

Córdoba weather history for previous 24 hours

 ConditionsComfort  
Time TempWeatherWind HumidityBarometerVisibility
6:00 AM
Oct 23
57 °FClear.1 mph59%30.18 "Hg10 mi
5:00 AM55 °FClear.2 mph63%30.18 "Hg10 mi
4:00 AM61 °FPassing clouds.5 mph45%30.18 "HgN/A
3:00 AM61 °FClear.8 mph52%30.18 "Hg10 mi
1:00 AM61 °FClear.6 mph59%30.21 "Hg10 mi
12:00 AM66 °FClear.3 mph46%30.21 "Hg10 mi
11:00 PM
Oct 22
64 °FPassing clouds.3 mph60%30.18 "HgN/A
10:00 PM68 °FClear.6 mph53%30.18 "Hg10 mi
9:00 PM70 °FClear.7 mph50%30.18 "Hg10 mi
8:00 PM73 °FSunny.No wind41%30.15 "Hg10 mi
7:00 PM81 °FSunny.3 mph30%30.15 "Hg10 mi
6:00 PM84 °FSunny.5 mph35%30.15 "Hg10 mi
5:00 PM84 °FPassing clouds.5 mph35%30.15 "HgN/A
4:00 PM84 °FSunny.7 mph37%30.18 "Hg1 mi
3:00 PM82 °FPassing clouds.8 mph40%30.21 "HgN/A
2:00 PM81 °FSunny.10 mph45%30.24 "Hg10 mi
1:00 PM77 °FPassing clouds.7 mph47%30.27 "HgN/A
12:00 PM73 °FPassing clouds.9 mph53%30.27 "HgN/A
11:00 AM68 °FPassing clouds.6 mph64%30.27 "HgN/A
10:00 AM63 °FSunny.2 mph83%30.27 "Hg10 mi
9:00 AM57 °FClear.No wind94%30.27 "Hg10 mi
8:00 AM57 °FClear.No wind88%30.27 "Hg10 mi
7:00 AM57 °FClear.No wind88%30.24 "Hg10 mi
Weather by CustomWeather, © 2014

See weather overviewHow to use our weather pages